QPF
0.00 0.01 0.01 0.02 0.03 0.06 0.08 0.08 0.06 0.04 0.03 0.02 0.02 0.02 0.01 0.01 0.00 0.00 0.00 0.00 0.00 0.00 0.00 0.00 0.00 0.00 0.00 0.00 0.00 0.00 0.00 0.00 0.00 0.00 0.00 0.00 0.00 0.00 0.00 0.00 0.00 0.00 0.00
0.00 0.01 0.02 0.02 0.03 0.03 0.05 0.07 0.07 0.05 0.03 0.02 0.01 0.01 0.01 0.01 0.01 0.00 0.00 0.00 0.00 0.00 0.00 0.00 0.00 0.00 0.00 0.00 0.00 0.00 0.00 0.00 0.00 0.00 0.00 0.00 0.00 0.00 0.00 0.00 0.00 0.00 0.00
0.00 0.01 0.01 0.01 0.01 0.02 0.03 0.04 0.06 0.05 0.04 0.03 0.02 0.02 0.02 0.01 0.01 0.00 0.00 0.00 0.00 0.00 0.00 0.00 0.00 0.00 0.00 0.00 0.00 0.00 0.00 0.00 0.00 0.00 0.00 0.00 0.00 0.00 0.00 0.00 0.00 0.00 0.00
0.00 0.00 0.01 0.01 0.00 0.01 0.02 0.04 0.05 0.06 0.05 0.04 0.02 0.01 0.01 0.01 0.00 0.00 0.00 0.00 0.00 0.00 0.00 0.00 0.00 0.00 0.00 0.00 0.00 0.00 0.00 0.00 0.00 0.00 0.00 0.00 0.00 0.00 0.00 0.00 0.00 0.00 0.00
0.00 0.00 0.01 0.01 0.00 0.00 0.01 0.03 0.06 0.06 0.06 0.05 0.03 0.01 0.00 0.00 0.00 0.00 0.00 0.00 0.00 0.00 0.00 0.00 0.00 0.00 0.00 0.00 0.00 0.00 0.00 0.00 0.00 0.00 0.00 0.00 0.00 0.00 0.00 0.00 0.00 0.00 0.00
0.00 0.01 0.01 0.01 0.01 0.01 0.01 0.01 0.04 0.05 0.06 0.07 0.06 0.03 0.01 0.01 0.00 0.00 0.00 0.00 0.00 0.00 0.00 0.00 0.00 0.00 0.00 0.00 0.00 0.00 0.00 0.00 0.00 0.00 0.00 0.00 0.00 0.01 0.00 0.01 0.00 0.00 0.00
0.00 0.00 0.01 0.01 0.01 0.01 0.01 0.01 0.03 0.05 0.04 0.05 0.06 0.05 0.03 0.01 0.01 0.01 0.01 0.00 0.00 0.00 0.00 0.00 0.00 0.00 0.00 0.00 0.00 0.00 0.00 0.00 0.00 0.00 0.00 0.00 0.00 0.00 0.00 0.01 0.01 0.00 0.00
0.00 0.00 0.01 0.01 0.01 0.01 0.00 0.01 0.02 0.04 0.03 0.03 0.04 0.05 0.04 0.02 0.01 0.01 0.01 0.01 0.00 0.00 0.00 0.00 0.00 0.00 0.00 0.00 0.00 0.00 0.00 0.00 0.00 0.00 0.00 0.00 0.00 0.00 0.01 0.01 0.01 0.01 0.01
0.00 0.00 0.00 0.00 0.00 0.01 0.01 0.01 0.01 0.03 0.03 0.02 0.03 0.04 0.05 0.03 0.02 0.01 0.01 0.01 0.01 0.01 0.01 0.00 0.00 0.00 0.00 0.01 0.01 0.01 0.01 0.01 0.00 0.00 0.00 0.00 0.00 0.00 0.00 0.00 0.01 0.02 0.02
0.00 0.00 0.00 0.00 0.00 0.00 0.01 0.01 0.01 0.02 0.03 0.03 0.03 0.04 0.04 0.03 0.02 0.02 0.01 0.01 0.01 0.01 0.01 0.00 0.00 0.00 0.00 0.00 0.01 0.01 0.01 0.00 0.00 0.00 0.00 0.00 0.00 0.00 0.00 0.01 0.01 0.01 0.01
0.00 0.00 0.00 0.00 0.00 0.00 0.01 0.01 0.01 0.02 0.02 0.02 0.02 0.03 0.04 0.04 0.03 0.02 0.01 0.01 0.01 0.01 0.01 0.01 0.00 0.00 0.01 0.01 0.01 0.01 0.00 0.00 0.01 0.01 0.01 0.01 0.00 0.00 0.00 0.01 0.01 0.01 0.01
0.00 0.00 0.00 0.00 0.00 0.00 0.00 0.00 0.01 0.01 0.02 0.01 0.01 0.02 0.03 0.04 0.04 0.02 0.01 0.01 0.01 0.01 0.01 0.01 0.01 0.00 0.01 0.01 0.01 0.01 0.01 0.01 0.01 0.01 0.01 0.00 0.00 0.00 0.00 0.00 0.01 0.01 0.01
0.00 0.00 0.00 0.00 0.00 0.00 0.00 0.00 0.00 0.01 0.02 0.01 0.01 0.02 0.03 0.03 0.03 0.02 0.02 0.02 0.01 0.01 0.01 0.01 0.01 0.01 0.01 0.00 0.00 0.01 0.01 0.01 0.01 0.00 0.00 0.00 0.00 0.00 0.01 0.01 0.01 0.01 0.01
0.01 0.00 0.00 0.00 0.00 0.00 0.00 0.00 0.00 0.01 0.01 0.01 0.01 0.01 0.02 0.01 0.02 0.02 0.02 0.02 0.01 0.01 0.01 0.01 0.00 0.01 0.01 0.00 0.00 0.00 0.01 0.01 0.00 0.00 0.00 0.00 0.00 0.01 0.01 0.01 0.01 0.01 0.01
0.01 0.00 0.00 0.00 0.00 0.00 0.00 0.00 0.00 0.01 0.01 0.01 0.01 0.01 0.01 0.02 0.02 0.02 0.02 0.02 0.02 0.01 0.01 0.01 0.01 0.00 0.00 0.00 0.00 0.00 0.00 0.00 0.00 0.00 0.00 0.01 0.01 0.01 0.01 0.00 0.00 0.00 0.00
0.01 0.01 0.00 0.00 0.00 0.00 0.00 0.01 0.00 0.00 0.00 0.00 0.00 0.00 0.01 0.02 0.02 0.01 0.01 0.01 0.02 0.01 0.01 0.01 0.01 0.00 0.00 0.01 0.00 0.00 0.00 0.00 0.00 0.00 0.01 0.01 0.01 0.01 0.01 0.00 0.00 0.00 0.00
0.01 0.01 0.01 0.01 0.01 0.01 0.00 0.01 0.01 0.00 0.00 0.00 0.00 0.00 0.01 0.01 0.01 0.02 0.01 0.01 0.01 0.01 0.01 0.01 0.01 0.01 0.00 0.01 0.01 0.00 0.00 0.00 0.00 0.01 0.01 0.01 0.01 0.01 0.01 0.01 0.01 0.01 0.01
0.01 0.01 0.01 0.00 0.00 0.01 0.01 0.01 0.01 0.01 0.01 0.00 0.00 0.01 0.01 0.02 0.02 0.02 0.02 0.01 0.01 0.01 0.01 0.01 0.01 0.00 0.00 0.01 0.01 0.01 0.00 0.00 0.01 0.01 0.01 0.01 0.01 0.01 0.01 0.01 0.01 0.01 0.01
0.01 0.01 0.01 0.01 0.01 0.01 0.02 0.02 0.01 0.01 0.01 0.00 0.00 0.00 0.00 0.01 0.02 0.02 0.01 0.01 0.01 0.01 0.01 0.01 0.00 0.00 0.01 0.01 0.01 0.01 0.00 0.01 0.00 0.00 0.00 0.01 0.00 0.01 0.01 0.00 0.00 0.00 0.01
0.01 0.01 0.01 0.01 0.02 0.02 0.02 0.02 0.02 0.01 0.01 0.00 0.00 0.00 0.00 0.00 0.00 0.01 0.01 0.01 0.01 0.01 0.01 0.01 0.01 0.01 0.01 0.01 0.01 0.01 0.00 0.00 0.00 0.00 0.00 0.01 0.01 0.01 0.01 0.00 0.00 0.00 0.00
0.01 0.01 0.02 0.02 0.02 0.01 0.01 0.02 0.02 0.01 0.01 0.01 0.01 0.01 0.00 0.00 0.00 0.01 0.01 0.01 0.01 0.02 0.01 0.01 0.01 0.01 0.01 0.01 0.01 0.01 0.00 0.00 0.00 0.00 0.00 0.01 0.01 0.01 0.01 0.01 0.00 0.01 0.00
0.01 0.01 0.02 0.02 0.01 0.01 0.01 0.02 0.02 0.02 0.01 0.01 0.01 0.01 0.01 0.00 0.00 0.01 0.01 0.01 0.01 0.01 0.01 0.01 0.01 0.01 0.01 0.01 0.01 0.01 0.01 0.00 0.00 0.00 0.00 0.00 0.01 0.00 0.00 0.01 0.01 0.01 0.00
0.01 0.02 0.02 0.02 0.02 0.02 0.01 0.02 0.02 0.02 0.02 0.01 0.01 0.01 0.01 0.01 0.01 0.01 0.01 0.01 0.01 0.01 0.01 0.01 0.01 0.01 0.01 0.01 0.01 0.01 0.01 0.01 0.00 0.00 0.00 0.00 0.00 0.00 0.00 0.01 0.01 0.01 0.00
0.02 0.02 0.03 0.03 0.02 0.02 0.01 0.02 0.02 0.02 0.02 0.02 0.01 0.01 0.01 0.01 0.01 0.01 0.01 0.01 0.01 0.01 0.01 0.01 0.01 0.01 0.01 0.01 0.01 0.01 0.01 0.00 0.00 0.00 0.01 0.01 0.01 0.01 0.00 0.01 0.01 0.00 0.00
0.03 0.02 0.02 0.03 0.02 0.02 0.02 0.02 0.02 0.02 0.02 0.02 0.02 0.02 0.02 0.02 0.02 0.01 0.01 0.01 0.01 0.01 0.01 0.01 0.01 0.00 0.00 0.00 0.00 0.00 0.00 0.00 0.00 0.00 0.00 0.00 0.00 0.00 0.00 0.00 0.00 0.00 0.00
0.03 0.02 0.02 0.03 0.03 0.02 0.02 0.02 0.02 0.02 0.02 0.02 0.02 0.02 0.02 0.02 0.02 0.02 0.02 0.02 0.02 0.02 0.02 0.01 0.01 0.00 0.00 0.00 0.00 0.00 0.00 0.00 0.00 0.00 0.00 0.00 0.00 0.00 0.00 0.00 0.00 0.00 0.00
MSLP
1002.91 1002.56 1002.33 1002.23 1002.31 1002.59 1003.06 1003.71 1004.53 1005.44 1006.42 1007.38 1008.31 1009.16 1009.92 1010.61 1011.23 1011.81 1012.38 1012.96 1013.57 1014.21 1014.87 1015.54 1016.21 1016.87 1017.50 1018.11 1018.68 1019.22 1019.73 1020.20 1020.63 1021.00 1021.31 1021.54 1021.69 1021.78 1021.80 1021.78 1021.74 1021.70 1021.67
1002.57 1002.17 1001.86 1001.66 1001.63 1001.79 1002.16 1002.76 1003.55 1004.49 1005.53 1006.59 1007.61 1008.56 1009.41 1010.15 1010.80 1011.38 1011.94 1012.51 1013.10 1013.74 1014.41 1015.11 1015.81 1016.49 1017.15 1017.77 1018.35 1018.89 1019.41 1019.91 1020.37 1020.79 1021.16 1021.46 1021.68 1021.82 1021.87 1021.85 1021.79 1021.70 1021.62
1002.37 1001.92 1001.52 1001.21 1001.04 1001.05 1001.28 1001.77 1002.50 1003.43 1004.49 1005.63 1006.75 1007.81 1008.75 1009.56 1010.24 1010.84 1011.40 1011.95 1012.53 1013.15 1013.82 1014.53 1015.25 1015.95 1016.63 1017.27 1017.87 1018.44 1018.97 1019.50 1020.00 1020.48 1020.92 1021.30 1021.59 1021.78 1021.87 1021.86 1021.78 1021.65 1021.51
1002.31 1001.81 1001.33 1000.90 1000.56 1000.40 1000.46 1000.80 1001.42 1002.29 1003.36 1004.53 1005.74 1006.89 1007.92 1008.81 1009.56 1010.18 1010.74 1011.28 1011.84 1012.44 1013.11 1013.82 1014.56 1015.29 1016.00 1016.67 1017.30 1017.90 1018.47 1019.03 1019.58 1020.11 1020.61 1021.05 1021.41 1021.66 1021.78 1021.79 1021.70 1021.54 1021.35
1002.36 1001.83 1001.27 1000.72 1000.23 999.87 999.74 999.89 1000.36 1001.14 1002.16 1003.35 1004.60 1005.83 1006.95 1007.92 1008.73 1009.40 1009.97 1010.51 1011.05 1011.65 1012.31 1013.03 1013.79 1014.56 1015.31 1016.02 1016.69 1017.33 1017.93 1018.53 1019.11 1019.68 1020.23 1020.72 1021.13 1021.43 1021.59 1021.62 1021.53 1021.36 1021.13
1002.49 1001.94 1001.32 1000.66 1000.01 999.47 999.13 999.08 999.37 1000.01 1000.94 1002.10 1003.37 1004.66 1005.85 1006.90 1007.78 1008.50 1009.10 1009.65 1010.21 1010.80 1011.47 1012.21 1013.00 1013.81 1014.61 1015.38 1016.09 1016.76 1017.40 1018.01 1018.61 1019.20 1019.77 1020.29 1020.73 1021.06 1021.26 1021.32 1021.25 1021.08 1020.85
1002.65 1002.10 1001.44 1000.69 999.91 999.19 998.65 998.38 998.47 998.94 999.76 1000.84 1002.10 1003.41 1004.66 1005.79 1006.73 1007.52 1008.18 1008.76 1009.34 1009.96 1010.64 1011.41 1012.24 1013.10 1013.94 1014.76 1015.51 1016.21 1016.86 1017.47 1018.07 1018.64 1019.20 1019.72 1020.17 1020.53 1020.76 1020.86 1020.83 1020.70 1020.50
1002.82 1002.28 1001.60 1000.79 999.89 999.01 998.27 997.79 997.67 997.96 998.62 999.61 1000.82 1002.13 1003.42 1004.61 1005.64 1006.50 1007.22 1007.86 1008.48 1009.14 1009.86 1010.66 1011.52 1012.42 1013.31 1014.15 1014.94 1015.65 1016.29 1016.88 1017.44 1017.98 1018.51 1019.00 1019.45 1019.82 1020.09 1020.25 1020.29 1020.23 1020.09
1002.97 1002.46 1001.78 1000.92 999.93 998.92 998.00 997.32 996.99 997.07 997.57 998.44 999.57 1000.86 1002.17 1003.42 1004.52 1005.46 1006.27 1006.98 1007.66 1008.36 1009.12 1009.95 1010.84 1011.77 1012.68 1013.55 1014.34 1015.04 1015.66 1016.21 1016.72 1017.21 1017.69 1018.15 1018.59 1018.98 1019.29 1019.52 1019.65 1019.68 1019.64
1003.11 1002.63 1001.96 1001.08 1000.02 998.89 997.81 996.94 996.41 996.30 996.62 997.35 998.39 999.63 1000.95 1002.24 1003.41 1004.45 1005.34 1006.14 1006.88 1007.63 1008.42 1009.27 1010.18 1011.11 1012.02 1012.89 1013.67 1014.36 1014.94 1015.45 1015.91 1016.35 1016.78 1017.21 1017.64 1018.05 1018.43 1018.74 1018.97 1019.13 1019.21
1003.25 1002.81 1002.16 1001.25 1000.14 998.91 997.70 996.66 995.95 995.64 995.78 996.36 997.29 998.47 999.78 1001.10 1002.34 1003.46 1004.44 1005.32 1006.12 1006.92 1007.73 1008.59 1009.48 1010.40 1011.30 1012.14 1012.91 1013.57 1014.13 1014.61 1015.04 1015.44 1015.84 1016.26 1016.70 1017.15 1017.59 1018.00 1018.35 1018.64 1018.85
1003.43 1003.02 1002.37 1001.46 1000.30 998.99 997.66 996.48 995.59 995.10 995.06 995.48 996.30 997.40 998.68 1000.01 1001.31 1002.50 1003.56 1004.51 1005.37 1006.20 1007.02 1007.87 1008.74 1009.62 1010.49 1011.31 1012.06 1012.71 1013.26 1013.74 1014.16 1014.55 1014.95 1015.38 1015.85 1016.35 1016.87 1017.38 1017.85 1018.27 1018.62
1003.65 1003.27 1002.63 1001.70 1000.50 999.12 997.69 996.38 995.33 994.68 994.47 994.73 995.41 996.43 997.66 998.99 1000.31 1001.56 1002.69 1003.70 1004.61 1005.46 1006.28 1007.10 1007.94 1008.78 1009.62 1010.42 1011.16 1011.81 1012.39 1012.89 1013.34 1013.77 1014.21 1014.68 1015.19 1015.75 1016.34 1016.94 1017.52 1018.06 1018.52
1003.91 1003.54 1002.90 1001.96 1000.72 999.29 997.79 996.37 995.19 994.37 994.01 994.11 994.65 995.56 996.72 998.02 999.36 1000.64 1001.82 1002.88 1003.83 1004.69 1005.51 1006.31 1007.11 1007.92 1008.72 1009.51 1010.26 1010.95 1011.58 1012.14 1012.66 1013.16 1013.66 1014.19 1014.76 1015.38 1016.04 1016.71 1017.38 1018.00 1018.57
1004.17 1003.81 1003.17 1002.22 1000.96 999.50 997.94 996.43 995.14 994.19 993.67 993.62 994.02 994.80 995.87 997.13 998.46 999.76 1000.97 1002.07 1003.05 1003.93 1004.75 1005.52 1006.30 1007.08 1007.88 1008.67 1009.45 1010.20 1010.90 1011.56 1012.17 1012.77 1013.35 1013.96 1014.59 1015.25 1015.96 1016.68 1017.40 1018.08 1018.71
1004.38 1004.03 1003.39 1002.44 1001.19 999.71 998.12 996.56 995.18 994.12 993.46 993.25 993.50 994.15 995.12 996.31 997.61 998.91 1000.15 1001.28 1002.29 1003.20 1004.02 1004.80 1005.57 1006.34 1007.14 1007.96 1008.79 1009.61 1010.41 1011.17 1011.90 1012.60 1013.28 1013.95 1014.64 1015.34 1016.06 1016.80 1017.54 1018.25 1018.91
1004.47 1004.13 1003.51 1002.58 1001.35 999.89 998.31 996.72 995.29 994.13 993.35 993.00 993.09 993.60 994.46 995.56 996.82 998.11 999.36 1000.53 1001.58 1002.53 1003.38 1004.18 1004.96 1005.75 1006.57 1007.43 1008.32 1009.22 1010.12 1011.00 1011.84 1012.64 1013.40 1014.14 1014.86 1015.58 1016.30 1017.03 1017.76 1018.46 1019.13
1004.38 1004.07 1003.48 1002.59 1001.42 1000.02 998.47 996.89 995.43 994.20 993.31 992.83 992.78 993.15 993.88 994.90 996.09 997.37 998.64 999.84 1000.95 1001.94 1002.85 1003.69 1004.50 1005.33 1006.19 1007.10 1008.06 1009.04 1010.04 1011.01 1011.95 1012.84 1013.68 1014.46 1015.20 1015.92 1016.62 1017.32 1018.02 1018.70 1019.35
1004.08 1003.80 1003.27 1002.46 1001.37 1000.04 998.57 997.03 995.57 994.30 993.33 992.73 992.54 992.77 993.38 994.30 995.43 996.69 997.97 999.22 1000.39 1001.45 1002.43 1003.33 1004.21 1005.09 1006.00 1006.96 1007.98 1009.04 1010.11 1011.17 1012.19 1013.15 1014.04 1014.85 1015.61 1016.32 1017.00 1017.66 1018.31 1018.95 1019.58
1003.57 1003.34 1002.88 1002.16 1001.18 999.97 998.58 997.12 995.68 994.39 993.35 992.65 992.35 992.45 992.94 993.76 994.84 996.07 997.37 998.67 999.91 1001.05 1002.11 1003.10 1004.04 1004.99 1005.96 1006.97 1008.04 1009.15 1010.28 1011.40 1012.48 1013.50 1014.44 1015.28 1016.05 1016.76 1017.41 1018.04 1018.65 1019.26 1019.84
1002.89 1002.72 1002.34 1001.72 1000.87 999.78 998.51 997.12 995.73 994.44 993.36 992.59 992.18 992.17 992.55 993.29 994.31 995.52 996.84 998.19 999.50 1000.73 1001.88 1002.96 1003.98 1004.99 1006.01 1007.08 1008.19 1009.34 1010.51 1011.68 1012.81 1013.87 1014.84 1015.72 1016.51 1017.22 1017.87 1018.48 1019.07 1019.64 1020.20
1002.10 1001.98 1001.69 1001.18 1000.45 999.49 998.33 997.04 995.71 994.44 993.34 992.51 992.02 991.92 992.21 992.88 993.85 995.06 996.39 997.79 999.16 1000.49 1001.73 1002.88 1003.99 1005.06 1006.14 1007.24 1008.38 1009.56 1010.77 1011.96 1013.13 1014.23 1015.25 1016.17 1016.99 1017.72 1018.39 1019.00 1019.58 1020.13 1020.66
1001.26 1001.20 1000.98 1000.58 999.96 999.12 998.07 996.88 995.61 994.37 993.27 992.41 991.88 991.71 991.94 992.55 993.49 994.68 996.04 997.47 998.92 1000.31 1001.64 1002.87 1004.05 1005.18 1006.30 1007.43 1008.60 1009.80 1011.02 1012.24 1013.44 1014.58 1015.64 1016.61 1017.48 1018.26 1018.96 1019.59 1020.17 1020.72 1021.22
1000.45 1000.43 1000.28 999.97 999.44 998.70 997.75 996.64 995.44 994.25 993.17 992.31 991.76 991.56 991.76 992.34 993.26 994.44 995.81 997.28 998.77 1000.23 1001.63 1002.93 1004.16 1005.35 1006.50 1007.66 1008.84 1010.06 1011.29 1012.53 1013.76 1014.93 1016.04 1017.06 1017.99 1018.83 1019.57 1020.23 1020.83 1021.37 1021.86
999.73 999.73 999.63 999.37 998.92 998.26 997.39 996.36 995.23 994.10 993.07 992.24 991.70 991.50 991.69 992.26 993.17 994.36 995.74 997.24 998.77 1000.28 1001.73 1003.09 1004.37 1005.59 1006.77 1007.95 1009.14 1010.36 1011.60 1012.85 1014.09 1015.30 1016.45 1017.52 1018.51 1019.40 1020.19 1020.89 1021.51 1022.05 1022.52
999.12 999.14 999.06 998.84 998.43 997.82 997.01 996.05 995.00 993.94 992.98 992.22 991.72 991.57 991.78 992.36 993.29 994.48 995.88 997.40 998.95 1000.49 1001.97 1003.37 1004.69 1005.93 1007.14 1008.33 1009.52 1010.74 1011.97 1013.22 1014.47 1015.70 1016.88 1017.99 1019.01 1019.95 1020.78 1021.51 1022.14 1022.68 1023.13
Thickness
5636 5641 5648 5653 5656 5659 5663 5666 5669 5670 5669 5668 5668 5668 5667 5667 5667 5667 5666 5665 5664 5662 5660 5658 5655 5653 5650 5646 5643 5639 5635 5630 5627 5623 5620 5618 5616 5614 5611 5608 5604 5600 5596
5625 5633 5640 5646 5652 5656 5659 5662 5666 5668 5669 5669 5669 5667 5666 5664 5663 5663 5662 5661 5661 5659 5657 5655 5652 5650 5646 5642 5639 5636 5630 5626 5622 5619 5614 5610 5609 5608 5606 5602 5598 5594 5590
5620 5628 5634 5641 5647 5652 5657 5662 5665 5667 5667 5667 5664 5661 5658 5658 5657 5659 5660 5660 5659 5657 5655 5652 5650 5647 5644 5640 5636 5633 5628 5622 5617 5615 5611 5605 5602 5599 5599 5596 5592 5588 5584
5617 5624 5631 5636 5643 5651 5656 5660 5662 5663 5664 5664 5663 5662 5662 5663 5664 5662 5660 5657 5656 5654 5652 5650 5647 5644 5642 5638 5634 5630 5626 5621 5614 5609 5606 5603 5599 5595 5592 5589 5585 5582 5578
5612 5619 5627 5635 5642 5648 5652 5656 5658 5660 5661 5662 5664 5662 5663 5663 5661 5658 5656 5654 5653 5652 5650 5648 5645 5642 5639 5636 5632 5627 5623 5619 5613 5607 5602 5596 5591 5588 5585 5582 5579 5575 5572
5607 5615 5623 5630 5636 5642 5647 5651 5654 5658 5660 5661 5662 5663 5663 5661 5658 5657 5655 5653 5651 5649 5647 5646 5643 5640 5637 5634 5629 5625 5620 5615 5611 5606 5601 5595 5590 5584 5579 5575 5571 5567 5564
5601 5608 5615 5623 5631 5637 5643 5647 5652 5656 5659 5660 5662 5664 5663 5661 5660 5658 5655 5653 5650 5649 5647 5644 5642 5639 5635 5631 5626 5622 5617 5612 5608 5603 5598 5593 5589 5583 5577 5571 5566 5561 5557
5595 5603 5611 5618 5627 5634 5641 5646 5651 5655 5658 5660 5662 5663 5662 5660 5660 5658 5657 5654 5653 5651 5647 5643 5640 5636 5632 5628 5623 5619 5614 5609 5604 5600 5595 5590 5585 5580 5574 5568 5561 5555 5550
5588 5597 5606 5614 5623 5632 5639 5645 5651 5654 5658 5660 5661 5661 5661 5660 5660 5658 5656 5654 5652 5648 5645 5641 5637 5633 5629 5625 5620 5616 5611 5606 5601 5596 5591 5586 5581 5575 5570 5564 5557 5550 5544
5582 5591 5600 5609 5619 5629 5637 5643 5649 5654 5658 5660 5661 5661 5661 5661 5659 5656 5654 5653 5650 5646 5642 5639 5635 5630 5626 5622 5617 5613 5608 5603 5598 5592 5587 5581 5576 5570 5564 5558 5551 5545 5538
5575 5584 5594 5604 5613 5623 5632 5638 5645 5650 5653 5656 5659 5659 5659 5658 5656 5654 5653 5651 5648 5644 5641 5637 5633 5628 5624 5619 5614 5610 5605 5599 5594 5588 5583 5578 5571 5565 5558 5552 5545 5538 5531
5567 5577 5586 5596 5606 5617 5626 5634 5640 5646 5652 5655 5655 5656 5656 5654 5653 5652 5651 5648 5645 5642 5639 5635 5630 5626 5621 5617 5612 5607 5602 5596 5591 5585 5579 5573 5567 5560 5553 5546 5539 5532 5525
5559 5568 5578 5588 5599 5610 5620 5628 5636 5643 5648 5650 5651 5652 5652 5651 5651 5650 5648 5645 5642 5639 5635 5631 5628 5624 5619 5614 5610 5605 5599 5594 5589 5583 5576 5570 5562 5555 5548 5541 5534 5526 5518
5550 5560 5570 5581 5591 5601 5613 5622 5630 5638 5642 5644 5646 5648 5649 5649 5649 5647 5644 5642 5639 5635 5632 5628 5625 5620 5616 5611 5606 5601 5595 5589 5584 5578 5572 5566 5559 5552 5544 5537 5529 5520 5511
5543 5552 5562 5573 5583 5593 5605 5615 5623 5630 5635 5638 5641 5644 5645 5645 5643 5641 5639 5637 5634 5632 5628 5624 5619 5615 5611 5607 5602 5596 5590 5584 5578 5572 5566 5561 5555 5548 5541 5532 5523 5515 5505
5533 5543 5554 5565 5576 5586 5597 5607 5615 5622 5628 5632 5636 5638 5638 5638 5637 5635 5633 5631 5628 5626 5622 5619 5615 5611 5607 5603 5598 5592 5585 5579 5573 5566 5559 5553 5547 5541 5534 5527 5519 5511 5500
5524 5535 5545 5557 5568 5579 5590 5600 5609 5615 5620 5625 5628 5630 5631 5631 5631 5629 5627 5625 5623 5620 5617 5614 5610 5606 5602 5598 5592 5587 5581 5574 5568 5561 5553 5546 5540 5533 5526 5518 5511 5502 5494
5517 5528 5539 5550 5561 5572 5582 5592 5601 5608 5613 5617 5619 5621 5623 5624 5624 5622 5621 5619 5617 5615 5612 5608 5605 5601 5596 5591 5586 5580 5573 5567 5561 5554 5548 5541 5532 5525 5518 5509 5500 5491 5484
5510 5521 5531 5542 5554 5565 5575 5584 5592 5599 5604 5608 5611 5614 5616 5617 5617 5616 5615 5613 5610 5607 5605 5602 5598 5594 5589 5584 5579 5573 5565 5558 5551 5546 5540 5534 5527 5520 5512 5502 5492 5483 5474
5505 5515 5526 5536 5546 5556 5566 5575 5583 5590 5595 5601 5605 5608 5609 5610 5610 5609 5608 5605 5603 5600 5597 5594 5591 5588 5583 5577 5573 5567 5559 5551 5543 5536 5531 5527 5521 5513 5505 5495 5486 5475 5465
5499 5509 5519 5528 5537 5547 5557 5565 5574 5581 5588 5592 5595 5598 5601 5602 5603 5601 5600 5597 5594 5591 5588 5585 5582 5579 5576 5570 5566 5560 5555 5546 5537 5530 5523 5518 5513 5506 5497 5489 5480 5471 5460
5492 5502 5511 5520 5530 5539 5547 5555 5563 5571 5577 5581 5585 5588 5591 5593 5593 5592 5590 5588 5586 5582 5578 5575 5571 5568 5566 5563 5558 5553 5548 5542 5533 5525 5517 5511 5505 5497 5489 5481 5473 5463 5452
5484 5494 5502 5512 5521 5530 5538 5545 5552 5559 5566 5571 5574 5577 5580 5582 5584 5584 5582 5579 5577 5575 5571 5569 5565 5559 5556 5553 5550 5545 5539 5533 5526 5518 5512 5504 5497 5489 5480 5472 5464 5454 5443
5476 5485 5494 5503 5513 5521 5528 5535 5543 5549 5555 5560 5564 5567 5570 5572 5574 5575 5575 5574 5571 5569 5566 5563 5559 5553 5548 5545 5541 5535 5529 5523 5516 5509 5502 5494 5487 5479 5471 5462 5453 5444 5435
5468 5476 5485 5494 5504 5512 5519 5527 5533 5540 5545 5551 5555 5557 5560 5562 5564 5564 5566 5567 5567 5568 5566 5562 5559 5552 5545 5542 5538 5532 5523 5516 5509 5501 5491 5482 5475 5467 5459 5451 5443 5435 5427
5460 5469 5478 5486 5495 5502 5510 5518 5525 5531 5536 5542 5546 5548 5550 5552 5554 5554 5552 5553 5555 5555 5555 5555 5552 5547 5543 5536 5530 5524 5517 5510 5503 5495 5484 5476 5468 5461 5452 5444 5435 5426 5418